This demonstration page uses our WeatherBlox Daily Observations layout. Learn more.

Hourly Observations for July 9, 2017

Temp ( °F °C ) Dew Point ( °F °C ) Humidity (%) Winds ( mph kmh ) Pressure ( in mb ) Visibility ( mi km ) Precip ( " mm )
12:54 am 00:54 Clear 71 21.7 66 18.9 84 84 Calm 30.01 1016 10 16.0934 0 0
1:54 am 01:54 Clear 70 21.1 66 18.9 87 87 Calm 30.01 1016 10 16.0934 0 0
2:54 am 02:54 Clear 68 20 65 18.3 90 90 Calm 30 1016 10 16.0934 0 0
3:54 am 03:54 Clear 71 21.7 65 18.3 81 81 Calm 29.98 1015 10 16.0934 0 0
4:54 am 04:54 Clear 71 21.7 65 18.3 81 81 SSE 5 7 29.97 1015 10 16.0934 0 0
5:54 am 05:54 Clear 69 20.6 65 18.3 87 87 SSE 5 7 29.97 1015 10 16.0934 0 0
6:54 am 06:54 Sunny 70 21.1 66 18.9 87 87 Calm 29.96 1015 10 16.0934 0 0
7:54 am 07:54 Sunny 74 23.3 66 18.9 76 76 SSE 5 7 29.95 1014 10 16.0934 0 0
8:54 am 08:54 Sunny 80 26.7 68 20 67 67 SSW 9 15 29.95 1014 10 16.0934 0 0
9:54 am 09:54 Sunny 83 28.3 69 20.6 63 63 SSW 9 15 29.93 1014 10 16.0934 0 0
10:54 am 10:54 Sunny 85 29.4 70 21.1 61 61 SSW 12 19 29.92 1013 10 16.0934 0 0
11:54 am 11:54 Sunny 87 30.6 71 21.7 59 59 S 13 20 29.91 1013 10 16.0934 0 0
12:54 pm 12:54 Sunny 90 32.2 71 21.7 54 54 S 16 26 29.88 1012 10 16.0934 0 0
1:54 pm 13:54 Sunny 92 33.3 70 21.1 49 49 S 18 30 29.87 1011 10 16.0934 0 0
2:54 pm 14:54 Sunny 93 33.9 70 21.1 47 47 S 18 30 29.84 1011 10 16.0934 0 0
3:54 pm 15:54 Sunny 94 34.4 70 21.1 46 46 S 21 33 29.83 1010 10 16.0934 0 0
4:54 pm 16:54 Sunny 94 34.4 71 21.7 48 48 S 16 26 29.81 1010 10 16.0934 0 0
5:54 pm 17:54 Sunny 94 34.4 71 21.7 48 48 S 15 24 29.78 1009 10 16.0934 0 0
6:54 pm 18:54 Sunny 92 33.3 72 22.2 52 52 S 12 19 29.76 1008 10 16.0934 0 0
7:54 pm 19:54 Sunny 89 31.7 70 21.1 53 53 S 13 20 29.75 1008 10 16.0934 0 0
8:54 pm 20:54 Sunny 84 28.9 69 20.6 61 61 S 12 19 29.74 1007 10 16.0934 0 0
9:54 pm 21:54 Clear 81 27.2 68 20 65 65 S 10 17 29.77 1008 10 16.0934 0 0
10:54 pm 22:54 Clear 83 28.3 68 20 61 61 S 9 15 29.77 1008 10 16.0934 0 0
11:54 pm 23:54 Clear 83 28.3 66 18.9 57 57 SSW 12 19 29.75 1008 10 16.0934 0 0

Powered by AerisWeather